Location: Gradaro
(45.0833°N, 10.8833°E)
Time: 09:38:28
(UTC+00:00)

FALCON 9 DEB - Pass Details

Date: 29 November 2020
Orbit: 372 x 393 km, 53.0° (Epoch: 23 January)

Event Time Altitude Azimuth Distance (km) Brightness Sun altitude
Exits shadow 04:55:59 46° 305° (NW) 546 3.2 -16.6°
Maximum altitude 04:56:23 49° 333° (NNW) 518 3.2 -16.5°
Drops below altitude 10° 04:59:33 10° 50° (NE) 1,450 6.3 -16.0°
Sets 05:01:41 0° 56° (NE) 2,314 7.4 -15.6°
